THAICOM 4

Last updated on Sun Apr 12 2026 00:02:51 GMT+0000 (Coordinated Universal Time)

1 28786U 05028A 26101.49697406 -.00000361 00000+0 00000+0 0 9990 2 28786 0.0739 81.8671 0002084 315.2728 100.9853 1.00270341 51588
UTC large
Height (km)
Speed (km/s)
/
Latitude / Longitude
Inclination (degrees)
Orbital Period (minutes)
Azimuth
Elevation
Range (km)
Doppler Factor

Next 0 passes for location: London (51.5072 / 0.1276)

Sorry there are no passes over London.
THAICOM 4